Hourly Weather Klapaczka

Today, 25 July, Sunday

Time Temperature Precipitation Wind Pressure Humidity
00:00 +19°C° 0 mm 3 mps 741 mmHg 72%
01:00 +20°C° 0 mm 2 mps 741 mmHg 72%
02:00 +20°C° 0 mm 2 mps 740 mmHg 71%
03:00 +20°C° 0 mm 2 mps 740 mmHg 69%
04:00 +20°C° 0 mm 2 mps 740 mmHg 67%
05:00 +21°C° 0 mm 3 mps 740 mmHg 63%
06:00 +22°C° 0 mm 3 mps 740 mmHg 59%
07:00 +24°C° 0 mm 3 mps 741 mmHg 55%
08:00 +25°C° 0 mm 3 mps 741 mmHg 53%
09:00 +26°C° 0 mm 4 mps 741 mmHg 50%
10:00 +27°C° 0 mm 4 mps 741 mmHg 48%
11:00 +26°C° 0 mm 5 mps 741 mmHg 51%
12:00 +26°C° 0 mm 6 mps 741 mmHg 54%
13:00 +24°C° 0 mm 6 mps 741 mmHg 56%
14:00 +23°C° 0.1 mm 5 mps 741 mmHg 61%
15:00 +22°C° 0.1 mm 4 mps 741 mmHg 66%
16:00 +21°C° 0.1 mm 3 mps 741 mmHg 71%
17:00 +21°C° 0 mm 3 mps 741 mmHg 71%
18:00 +21°C° 0 mm 3 mps 741 mmHg 71%
19:00 +21°C° 0 mm 3 mps 740 mmHg 71%
20:00 +21°C° 0 mm 4 mps 740 mmHg 71%
21:00 +21°C° 0 mm 4 mps 740 mmHg 71%
22:00 +20°C° 0 mm 4 mps 740 mmHg 72%
23:00 +20°C° 0 mm 3 mps 740 mmHg 73%

Tomorrow, 26 July, Monday

Time Temperature Precipitation Wind Pressure Humidity
00:00 +20°C° 0 mm 3 mps 740 mmHg 75%
01:00 +19°C° 0 mm 2 mps 739 mmHg 76%
02:00 +18°C° 0 mm 2 mps 739 mmHg 79%
03:00 +19°C° 0 mm 1 mps 739 mmHg 82%
04:00 +18°C° 0 mm 1 mps 739 mmHg 85%
05:00 +19°C° 0 mm 1 mps 739 mmHg 81%
06:00 +20°C° 0 mm 2 mps 739 mmHg 76%
07:00 +21°C° 0 mm 2 mps 740 mmHg 72%
08:00 +23°C° 0 mm 2 mps 740 mmHg 67%
09:00 +25°C° 0 mm 2 mps 740 mmHg 62%
10:00 +26°C° 0 mm 3 mps 740 mmHg 58%
11:00 +27°C° 0.1 mm 3 mps 740 mmHg 56%
12:00 +28°C° 0.1 mm 2 mps 740 mmHg 54%
13:00 +28°C° 0.1 mm 2 mps 740 mmHg 53%
14:00 +29°C° 0 mm 2 mps 740 mmHg 51%
15:00 +29°C° 0 mm 2 mps 740 mmHg 50%
16:00 +29°C° 0 mm 2 mps 740 mmHg 49%
17:00 +28°C° 0 mm 2 mps 740 mmHg 54%
18:00 +27°C° 0 mm 2 mps 740 mmHg 58%
19:00 +26°C° 0 mm 2 mps 739 mmHg 63%
20:00 +25°C° 0 mm 1 mps 740 mmHg 65%
21:00 +24°C° 0 mm 1 mps 740 mmHg 67%
22:00 +23°C° 0 mm 1 mps 740 mmHg 69%
23:00 +23°C° 0 mm 1 mps 740 mmHg 70%

Day after tomorrow, 27 July, Tuesday

Time Temperature Precipitation Wind Pressure Humidity
00:00 +22°C° 0 mm 1 mps 740 mmHg 71%
01:00 +22°C° 0 mm 1 mps 740 mmHg 72%
02:00 +20°C° 0.6 mm 2 mps 740 mmHg 79%
03:00 +20°C° 0.6 mm 2 mps 740 mmHg 86%
04:00 +19°C° 0.6 mm 3 mps 741 mmHg 93%
05:00 +19°C° 0.3 mm 3 mps 741 mmHg 93%
06:00 +19°C° 0.3 mm 3 mps 741 mmHg 94%
07:00 +19°C° 0.3 mm 3 mps 741 mmHg 94%
08:00 +19°C° 0.2 mm 2 mps 742 mmHg 93%
09:00 +20°C° 0.2 mm 2 mps 742 mmHg 92%
10:00 +21°C° 0.2 mm 1 mps 742 mmHg 91%
11:00 +22°C° 0.1 mm 1 mps 742 mmHg 85%
12:00 +23°C° 0.1 mm 1 mps 743 mmHg 78%
13:00 +24°C° 0.1 mm 1 mps 743 mmHg 72%
14:00 +25°C° 0 mm 2 mps 743 mmHg 66%
15:00 +26°C° 0 mm 2 mps 743 mmHg 61%
16:00 +27°C° 0 mm 2 mps 742 mmHg 55%
17:00 +26°C° 0 mm 2 mps 742 mmHg 59%
18:00 +25°C° 0 mm 2 mps 742 mmHg 64%
19:00 +24°C° 0 mm 1 mps 742 mmHg 68%
20:00 +24°C° 0 mm 2 mps 742 mmHg 71%
21:00 +23°C° 0 mm 2 mps 742 mmHg 73%
22:00 +21°C° 0 mm 2 mps 742 mmHg 76%
23:00 +21°C° 0 mm 2 mps 742 mmHg 78%

28 July, Wednesday

Time Temperature Precipitation Wind Pressure Humidity
00:00 +20°C° 0 mm 2 mps 742 mmHg 80%
01:00 +20°C° 0 mm 3 mps 742 mmHg 82%
02:00 +20°C° 0 mm 2 mps 742 mmHg 84%
03:00 +19°C° 0 mm 2 mps 742 mmHg 85%
04:00 +19°C° 0 mm 2 mps 742 mmHg 87%
05:00 +20°C° 0 mm 2 mps 742 mmHg 81%
06:00 +23°C° 0 mm 2 mps 742 mmHg 75%
07:00 +24°C° 0 mm 2 mps 742 mmHg 68%
08:00 +26°C° 0 mm 1 mps 742 mmHg 62%
09:00 +28°C° 0 mm 1 mps 742 mmHg 55%
10:00 +29°C° 0 mm 1 mps 742 mmHg 49%
11:00 +30°C° 0 mm 1 mps 741 mmHg 44%
12:00 +31°C° 0 mm 1 mps 741 mmHg 39%
13:00 +32°C° 0 mm 1 mps 741 mmHg 34%
14:00 +32°C° 0 mm 1 mps 741 mmHg 33%
15:00 +33°C° 0 mm 1 mps 740 mmHg 32%
16:00 +33°C° 0 mm 1 mps 740 mmHg 31%
17:00 +29°C° 3.1 mm 2 mps 741 mmHg 51%
18:00 +23°C° 3.1 mm 4 mps 741 mmHg 72%
19:00 +19°C° 3.1 mm 5 mps 741 mmHg 93%
20:00 +18°C° 0.2 mm 4 mps 742 mmHg 94%
21:00 +18°C° 0.2 mm 3 mps 742 mmHg 94%
22:00 +18°C° 0.2 mm 2 mps 742 mmHg 95%
23:00 +18°C° 0 mm 2 mps 742 mmHg 95%

29 July, Thursday

Time Temperature Precipitation Wind Pressure Humidity
00:00 +18°C° 0 mm 1 mps 742 mmHg 96%
01:00 +18°C° 0 mm 1 mps 742 mmHg 97%
02:00 +18°C° 0 mm 1 mps 742 mmHg 96%
03:00 +18°C° 0 mm 1 mps 742 mmHg 96%
04:00 +18°C° 0 mm 1 mps 742 mmHg 96%
05:00 +19°C° 0 mm 1 mps 743 mmHg 92%
06:00 +20°C° 0 mm 1 mps 743 mmHg 88%
07:00 +21°C° 0 mm 1 mps 743 mmHg 84%
08:00 +23°C° 0 mm 1 mps 743 mmHg 75%
09:00 +24°C° 0 mm 1 mps 743 mmHg 67%
10:00 +26°C° 0 mm 2 mps 743 mmHg 59%
11:00 +28°C° 0 mm 2 mps 742 mmHg 54%
12:00 +29°C° 0 mm 2 mps 742 mmHg 49%
13:00 +30°C° 0 mm 2 mps 742 mmHg 44%
14:00 +31°C° 0 mm 2 mps 742 mmHg 44%
15:00 +31°C° 0 mm 2 mps 742 mmHg 43%
16:00 +32°C° 0 mm 1 mps 741 mmHg 43%
17:00 +30°C° 0 mm 1 mps 741 mmHg 48%
18:00 +29°C° 0 mm 1 mps 741 mmHg 53%
19:00 +28°C° 0 mm 1 mps 741 mmHg 59%
20:00 +26°C° 0.4 mm 2 mps 741 mmHg 65%
21:00 +25°C° 0.4 mm 2 mps 741 mmHg 72%
22:00 +22°C° 0.4 mm 3 mps 741 mmHg 79%
23:00 +21°C° 0.7 mm 3 mps 741 mmHg 84%

30 July, Friday

Time Temperature Precipitation Wind Pressure Humidity
00:00 +21°C° 0.7 mm 2 mps 741 mmHg 89%
01:00 +21°C° 0.7 mm 1 mps 741 mmHg 94%
02:00 +21°C° 0.2 mm 1 mps 741 mmHg 93%
03:00 +21°C° 0.2 mm 1 mps 741 mmHg 93%
04:00 +20°C° 0.2 mm 1 mps 741 mmHg 93%
05:00 +21°C° 0 mm 1 mps 742 mmHg 89%
06:00 +22°C° 0 mm 1 mps 742 mmHg 85%
07:00 +23°C° 0 mm 1 mps 742 mmHg 82%
08:00 +25°C° 0 mm 1 mps 742 mmHg 75%
09:00 +26°C° 0 mm 2 mps 742 mmHg 69%
10:00 +27°C° 0 mm 2 mps 742 mmHg 63%
11:00 +27°C° 0 mm 2 mps 741 mmHg 62%
12:00 +27°C° 0 mm 2 mps 741 mmHg 61%
13:00 +28°C° 0 mm 2 mps 741 mmHg 60%
14:00 +28°C° 0 mm 2 mps 740 mmHg 59%
15:00 +28°C° 0 mm 2 mps 740 mmHg 57%
16:00 +29°C° 0 mm 2 mps 740 mmHg 56%
17:00 +27°C° 0.6 mm 2 mps 740 mmHg 64%
18:00 +25°C° 0.6 mm 2 mps 740 mmHg 73%
19:00 +22°C° 0.6 mm 3 mps 740 mmHg 81%
20:00 +22°C° 0.6 mm 3 mps 740 mmHg 83%
21:00 +21°C° 0.6 mm 2 mps 740 mmHg 84%
22:00 +20°C° 0.6 mm 2 mps 741 mmHg 86%
23:00 +20°C° 0 mm 2 mps 741 mmHg 85%
Show more